This is the latest recevied weather packets stored in our database for station/object W4ZHA. If no packets are shown the sender has not sent any weather packets the latest 10 day(s).
| Time | Temp. | Humidity | Pressure | Rain* | Wind** | Luminosity | Snow |
|---|---|---|---|---|---|---|---|
| 1777411062 | 21.67° C | 70% | 1016.5 hPa | 0 mm | - | 26 W/m² | - |
| 1777410758 | 21.67° C | 70% | 1016.5 hPa | 0 mm | - | 26 W/m² | - |
| 1777410456 | 21.67° C | 70% | 1016.5 hPa | 0 mm | - | 26 W/m² | - |
| 1777410156 | 21.67° C | 70% | 1016.5 hPa | 0 mm | - | 28 W/m² | - |
| 1777409851 | 21.67° C | 70% | 1016.5 hPa | 0 mm | - | 37 W/m² | - |
| 1777409547 | 21.67° C | 69% | 1016.5 hPa | 0 mm | - | 33 W/m² | - |
| 1777409242 | 21.67° C | 69% | 1016.8 hPa | 0 mm | - | 44 W/m² | - |
| 1777408938 | 21.67° C | 69% | 1017.2 hPa | 0 mm | - | 54 W/m² | - |
| 1777408635 | 21.67° C | 69% | 1017.2 hPa | 0 mm | - | 85 W/m² | - |
| 1777408331 | 21.67° C | 68% | 1017.2 hPa | 0 mm | - | 95 W/m² | - |
| 1777408030 | 21.67° C | 68% | 1017.9 hPa | 0 mm | - | 89 W/m² | - |
| 1777407727 | 21.67° C | 68% | 1017.6 hPa | 0 mm | - | 105 W/m² | - |
| 1777407422 | 21.67° C | 69% | 1017.9 hPa | 0 mm | - | 89 W/m² | - |
| 1777407118 | 21.67° C | 69% | 1018.3 hPa | 0 mm | - | 75 W/m² | - |
| 1777406813 | 21.67° C | 69% | 1018.6 hPa | 0 mm | - | 90 W/m² | - |
| 1777406509 | 21.67° C | 68% | 1018.3 hPa | 0 mm | - | 109 W/m² | - |
| 1777406204 | 21.67° C | 68% | 1018.6 hPa | 0 mm | - | 91 W/m² | - |
| 1777405904 | 21.67° C | 68% | 1018.6 hPa | 0 mm | - | 109 W/m² | - |
| 1777405600 | 21.67° C | 68% | 1018.3 hPa | 0 mm | - | 99 W/m² | - |
| 1777405298 | 21.11° C | 69% | 1018.6 hPa | 0 mm | - | 119 W/m² | - |
| 1777404997 | 21.11° C | 68% | 1018.6 hPa | 0 mm | - | 106 W/m² | - |
| 1777404692 | 21.67° C | 68% | 1018.6 hPa | 0 mm | - | 95 W/m² | - |
| 1777404388 | 21.67° C | 68% | 1018.3 hPa | 0 mm | - | 91 W/m² | - |
| 1777404085 | 21.67° C | 67% | 1019 hPa | 0 mm | - | 104 W/m² | - |
| 1777403781 | 21.67° C | 67% | 1019 hPa | 0 mm | - | 138 W/m² | - |
* Rain latest hour (hover to see other rain measurements)
** Current wind speed in m/s (hover to see current wind gust speed)